K8CWG Weather Reports


time (UTC)temp
F
wind
direction
speed
knots
gust
knots
rain 1hr
in
rain 24hr
in
rain mn
in
humidity
%
barometer
mb
20260507113003 40 269 0.0 0.0 0.00 0.00 0.00 96 1014.3
20260507110007 39 269 0.0 0.0 0.00 0.00 0.00 96 1014.1
20260507110005 39 269 0.0 0.0 0.00 0.00 0.00 96 1013.8
20260507104502 39 269 0.0 0.0 0.00 0.00 0.00 96 1014.1
20260507101502 39 269 0.0 0.0 0.00 0.00 0.00 96 1013.7
20260507100005 40 269 0.0 0.0 0.00 0.00 0.00 96 1013.9
20260507091502 40 269 0.0 0.0 0.00 0.01 0.00 96 1013.4
20260507090005 40 269 0.0 0.0 0.00 0.01 0.00 95 1013.4
20260507083002 40 269 0.0 0.0 0.00 0.02 0.00 95 1013.1
20260507080004 40 269 0.0 0.0 0.00 0.02 0.00 95 1013.2
20260507073002 41 269 0.0 0.0 0.00 0.09 0.00 94 1013.0
20260507071502 41 269 0.0 0.0 0.00 0.09 0.00 94 1013.0
20260507070011 42 269 0.0 0.0 0.00 0.09 0.00 94 1013.0
20260507064502 42 269 0.0 0.9 0.00 0.15 0.00 94 1013.1
20260507063002 42 269 0.0 0.0 0.00 0.15 0.00 94 1013.1
20260507061502 42 269 0.0 0.0 0.00 0.15 0.00 93 1013.0
20260507060002 42 269 0.0 0.0 0.00 0.15 0.00 92 1013.1
20260507054501 42 269 0.0 0.0 0.00 0.30 0.00 92 1013.1
20260507053003 42 269 0.0 0.0 0.00 0.30 0.00 91 1013.1
20260507051502 43 269 0.0 0.0 0.00 0.30 0.00 91 1013.1
20260507050005 43 269 0.0 0.9 0.00 0.30 0.00 91 1013.2
20260507050003 43 269 0.0 0.9 0.00 0.30 0.00 91 1013.3
20260507044502 44 269 0.0 0.0 0.00 0.35 0.00 90 1013.4
20260507043002 44 269 0.0 0.9 0.00 0.35 0.00 89 1013.2
20260507040006 44 269 0.0 0.0 0.00 0.35 0.00 87 1013.1
20260507034502 45 269 0.0 0.0 0.00 0.36 0.35 87 1013.3
20260507033003 45 269 0.0 0.0 0.00 0.36 0.35 86 1013.4
20260507031502 46 269 0.0 0.0 0.00 0.36 0.35 84 1013.4
20260507030006 46 269 0.0 0.0 0.00 0.36 0.35 83 1013.5
20260507024503 47 269 0.0 0.0 0.00 0.38 0.35 82 1013.4
20260507023002 48 269 0.0 0.0 0.00 0.38 0.35 80 1013.4
20260507021502 49 269 0.0 0.0 0.00 0.38 0.35 78 1013.4
20260507020004 49 269 0.0 0.0 0.00 0.38 0.35 75 1013.3
20260507014502 50 269 0.0 0.0 0.00 0.50 0.35 74 1013.2
20260507011502 52 269 0.0 0.0 0.00 0.50 0.35 70 1012.6
20260507010004 53 269 0.0 0.0 0.00 0.50 0.35 67 1012.8
20260507004502 54 269 0.0 0.0 0.00 0.52 0.35 64 1012.7
20260507003002 55 269 0.0 2.6 0.00 0.52 0.35 61 1012.7
20260507000004 57 274 0.9 6.1 0.00 0.52 0.35 59 1012.3
20260506234502 58 297 0.9 5.2 0.00 0.53 0.35 55 1011.9
20260506234500 58 297 0.0 5.2 0.00 0.53 0.35 55 1011.9
20260506233003 60 282 0.9 4.3 0.00 0.53 0.35 52 1011.9
20260506233001 60 276 0.9 4.3 0.00 0.53 0.35 52 1011.9
20260506231502 59 132 0.9 3.5 0.00 0.53 0.35 59 1011.5
20260506230005 58 39 0.9 4.3 0.00 0.53 0.35 56 1011.7
20260506221502 59 17 0.9 3.5 0.00 0.53 0.35 54 1012.1
20260506220005 58 4 0.9 4.3 0.00 0.53 0.35 56 1012.2
20260506214502 59 293 0.9 5.2 0.00 0.57 0.35 55 1012.2
20260506210006 60 294 0.0 4.3 0.00 0.56 0.35 52 1011.5
20260506204502 60 291 0.9 5.2 0.00 0.97 0.35 55 1011.5
20260506203002 60 28 0.9 3.5 0.00 0.97 0.35 53 1011.6
20260506201502 61 205 0.9 7.0 0.00 0.97 0.35 57 1011.5
20260506200004 61 37 1.7 5.2 0.00 0.97 0.35 53 1011.7
20260506194502 61 296 1.7 4.3 0.00 0.97 0.35 53 1011.6
20260506193002 62 27 0.9 3.5 0.00 0.97 0.35 51 1011.2
20260506190005 62 259 1.7 6.1 0.00 0.97 0.35 49 1011.3
20260506184500 63 31 1.7 5.2 0.00 0.97 0.35 48 1011.2
20260506183008 61 314 2.6 7.8 0.00 0.97 0.35 53 1011.3
20260506183000 61 314 0.9 7.8 0.00 0.97 0.35 53 1011.2
20260506181508 61 255 2.6 7.0 0.00 0.97 0.35 52 1011.3
20260506181500 61 255 1.7 7.0 0.00 0.97 0.35 52 1011.1
20260506180010 61 32 1.7 6.1 0.00 0.97 0.35 55 1011.5
20260506180003 61 32 1.7 6.1 0.00 0.97 0.35 55 1011.4
20260506174503 60 257 1.7 7.8 0.00 0.97 0.35 58 1011.7
20260506173002 60 113 2.6 7.8 0.00 0.97 0.35 55 1011.8
20260506171503 60 337 1.7 6.1 0.00 0.97 0.35 56 1011.8
20260506171500 60 337 1.7 6.1 0.00 0.97 0.35 56 1011.7
20260506170005 59 313 2.6 8.7 0.00 0.97 0.35 59 1011.8
20260506164505 58 269 1.7 7.8 0.00 0.97 0.35 61 1011.8
20260506164502 58 269 2.6 7.8 0.00 0.97 0.35 61 1011.9
20260506163002 58 45 0.9 6.1 0.00 0.97 0.35 62 1011.8
20260506161502 57 277 2.6 7.0 0.00 0.97 0.35 61 1011.9
20260506160005 57 50 1.7 5.2 0.00 0.97 0.35 65 1011.8
20260506160003 57 50 0.9 5.2 0.00 0.97 0.35 65 1011.6
20260506154502 55 70 1.7 6.1 0.00 0.97 0.35 68 1011.6
20260506153002 54 345 1.7 7.0 0.00 0.97 0.35 71 1012.0
20260506150004 52 29 1.7 8.7 0.00 0.97 0.35 75 1011.4
20260506150002 52 29 0.9 8.7 0.00 0.97 0.35 75 1011.2
20260506143002 52 342 1.7 9.6 0.00 0.97 0.35 79 1010.8
20260506141502 51 7 1.7 7.8 0.00 0.97 0.35 79 1010.7
20260506140004 50 54 0.9 3.5 0.00 0.97 0.35 82 1010.6
20260506133004 49 263 0.9 6.1 0.00 0.97 0.35 86 1010.3
20260506131502 47 313 1.7 5.2 0.00 0.97 0.35 88 1010.1
20260506130004 47 83 0.9 6.1 0.00 0.97 0.35 92 1009.5
20260506124502 46 182 0.9 6.1 0.00 0.97 0.35 94 1010.0
20260506123002 46 264 0.9 3.5 0.00 0.97 0.35 95 1009.8
20260506121502 46 261 0.0 1.7 0.00 0.97 0.35 95 1009.8
20260506120006 45 296 0.0 3.5 0.00 0.97 0.35 96 1008.9